,,,PA_Meas_PMT16A,,PR_Meas_QMR101_102,,RH_Meas_QMH101,,SR_Meas_QMS101,,TA_Meas_QMH101,,GenWind,,GenWind,
date,time,status,PA,status,PR,status,RH,status,SR,status,TA,status,DirAvg,status,SpdAvg,
2008-05-18, 00:00:04,VALID,1009.42,VALID,0,VALID,92.3402,VALID,0,VALID,23.733,VALID,184,VALID,0.229687,
2008-05-18, 00:01:04,VALID,1009.41,VALID,0,VALID,92.4775,VALID,0,VALID,23.655,VALID,97,VALID,0.392969,
2008-05-18, 00:02:04,VALID,1009.4,VALID,0,VALID,92.8359,VALID,0,VALID,23.6356,VALID,97,VALID,0.260938,
2008-05-18, 00:03:04,VALID,1009.4,VALID,0,VALID,92.8436,VALID,0,VALID,23.5771,VALID,96,VALID,0.125781,
2008-05-18, 00:04:04,VALID,1009.39,VALID,0,VALID,92.9198,VALID,0,VALID,23.5381,VALID,97,VALID,0.154297,
2008-05-18, 00:05:04,VALID,1009.38,VALID,0,VALID,93.0189,VALID,0,VALID,23.4797,VALID,97,VALID,0.146875,
2008-05-18, 00:06:04,VALID,1009.35,VALID,0,VALID,93.0418,VALID,0,VALID,23.4407,VALID,96,VALID,0.179297,
2008-05-18, 00:07:04,VALID,1009.35,VALID,0,VALID,93.0266,VALID,0,VALID,23.4017,VALID,96,VALID,0.202344,
2008-05-18, 00:08:04,VALID,1009.36,VALID,0,VALID,93.1486,VALID,0,VALID,23.3628,VALID,97,VALID,0.138672,
2008-05-18, 00:09:04,VALID,1009.37,VALID,0,VALID,93.2553,VALID,0,VALID,23.3433,VALID,96,VALID,0.14375,
2008-05-18, 00:10:04,VALID,1009.39,VALID,0,VALID,93.6366,VALID,0,VALID,23.3433,VALID,97,VALID,0.103125,
2008-05-18, 00:11:04,VALID,1009.38,VALID,0,VALID,93.8654,VALID,0,VALID,23.3238,VALID,96,VALID,0.307813,
2008-05-18, 00:12:04,VALID,1009.35,VALID,0,VALID,94.0408,VALID,0,VALID,23.3433,VALID,97,VALID,0.009375,
2008-05-18, 00:13:04,VALID,1009.33,VALID,0,VALID,94.0408,VALID,0,VALID,23.3645,VALID,97,VALID,0,
2008-05-18, 00:14:04,VALID,1009.32,VALID,0,VALID,94.1171,VALID,0,VALID,23.3043,VALID,97,VALID,0.181641,
2008-05-18, 00:15:04,VALID,1009.35,VALID,0,VALID,94.2162,VALID,0,VALID,23.3451,VALID,97,VALID,0.199219,
2008-05-18, 00:16:04,VALID,1009.33,VALID,0,VALID,94.1781,VALID,0,VALID,23.2848,VALID,96,VALID,0.227344,
2008-05-18, 00:17:04,VALID,1009.34,VALID,0,VALID,94.1323,VALID,0,VALID,23.2866,VALID,96,VALID,0.178125,
2008-05-18, 00:18:04,VALID,1009.3,VALID,0,VALID,94.1247,VALID,0,VALID,23.2459,VALID,97,VALID,0,
2008-05-18, 00:19:04,VALID,1009.28,VALID,0,VALID,94.1781,VALID,0,VALID,23.2264,VALID,97,VALID,0,
2008-05-18, 00:20:04,VALID,1009.25,VALID,0,VALID,94.1781,VALID,0,VALID,23.2087,VALID,97,VALID,0,
2008-05-18, 00:21:05,VALID,1009.24,VALID,0,VALID,94.2162,VALID,0,VALID,23.2087,VALID,96,VALID,0.20625,
2008-05-18, 00:22:05,VALID,1009.24,VALID,0,VALID,94.1476,VALID,0,VALID,23.1485,VALID,97,VALID,0.218359,
2008-05-18, 00:23:05,VALID,1009.18,VALID,0,VALID,94.0637,VALID,0,VALID,23.1112,VALID,97,VALID,0.151172,
2008-05-18, 00:24:05,VALID,1009.2,VALID,0,VALID,94.0179,VALID,0,VALID,23.0511,VALID,96,VALID,0.152734,
2008-05-18, 00:25:05,VALID,1009.15,VALID,0,VALID,94.0332,VALID,0,VALID,23.0121,VALID,97,VALID,0.11875,
2008-05-18, 00:26:05,VALID,1009.13,VALID,0,VALID,94.1857,VALID,0,VALID,23.0121,VALID,97,VALID,0.0472656,
2008-05-18, 00:27:05,VALID,1009.13,VALID,0,VALID,94.2619,VALID,0,VALID,23.0333,VALID,96,VALID,0,
2008-05-18, 00:28:05,VALID,1009.11,VALID,0,VALID,94.3458,VALID,0,VALID,23.0333,VALID,97,VALID,0,
2008-05-18, 00:29:05,VALID,1009.1,VALID,0,VALID,94.3992,VALID,0,VALID,22.9926,VALID,97,VALID,0,
2008-05-18, 00:30:05,VALID,1009.09,VALID,0,VALID,94.4373,VALID,0,VALID,22.9926,VALID,97,VALID,0,
2008-05-18, 00:31:05,VALID,1009.08,VALID,0,VALID,94.4297,VALID,0,VALID,22.9731,VALID,97,VALID,0,
2008-05-18, 00:32:05,VALID,1009.07,VALID,0,VALID,94.4831,VALID,0,VALID,22.9943,VALID,97,VALID,0,
2008-05-18, 00:33:05,VALID,1009.05,VALID,0,VALID,94.6203,VALID,0,VALID,22.9943,VALID,97,VALID,0,
2008-05-18, 00:34:05,VALID,1009.02,VALID,0,VALID,94.689,VALID,0,VALID,22.9731,VALID,96,VALID,0.0988281,
2008-05-18, 00:35:05,VALID,1009,VALID,0,VALID,94.6737,VALID,0,VALID,22.9943,VALID,96,VALID,0.141406,
2008-05-18, 00:36:05,VALID,1008.94,VALID,0,VALID,94.7195,VALID,0,VALID,22.9731,VALID,97,VALID,0.03125,
2008-05-18, 00:37:05,VALID,1008.93,VALID,0,VALID,94.7042,VALID,0,VALID,22.9749,VALID,97,VALID,0.00195313,
2008-05-18, 00:38:05,VALID,1008.9,VALID,0,VALID,94.5365,VALID,0,VALID,22.9164,VALID,96,VALID,0.195313,
2008-05-18, 00:39:05,VALID,1008.92,VALID,0,VALID,94.6203,VALID,0,VALID,22.8969,VALID,97,VALID,0.215625,
2008-05-18, 00:40:05,VALID,1008.96,VALID,0,VALID,94.6508,VALID,0,VALID,22.8562,VALID,97,VALID,0,
2008-05-18, 00:41:05,VALID,1008.94,VALID,0,VALID,94.7576,VALID,0,VALID,22.8562,VALID,97,VALID,0.0015625,
2008-05-18, 00:42:05,VALID,1008.93,VALID,0,VALID,94.7576,VALID,0,VALID,22.8775,VALID,97,VALID,0.270312,
2008-05-18, 00:43:05,VALID,1008.98,VALID,0,VALID,94.5822,VALID,0,VALID,22.8385,VALID,97,VALID,0.24375,
2008-05-18, 00:44:05,VALID,1008.95,VALID,0,VALID,94.6051,VALID,0,VALID,22.7783,VALID,97,VALID,0.226953,
2008-05-18, 00:45:05,VALID,1008.93,VALID,0,VALID,94.6051,VALID,0,VALID,22.7394,VALID,97,VALID,0.101953,
2008-05-18, 00:46:05,VALID,1008.92,VALID,0,VALID,94.6814,VALID,0,VALID,22.7411,VALID,97,VALID,0.00351562,
2008-05-18, 00:47:05,VALID,1008.9,VALID,0,VALID,94.8339,VALID,0,VALID,22.7588,VALID,97,VALID,0,
2008-05-18, 00:48:05,VALID,1008.89,VALID,0,VALID,94.7652,VALID,0,VALID,22.7199,VALID,97,VALID,0,
2008-05-18, 00:49:05,VALID,1008.88,VALID,0,VALID,94.6661,VALID,0,VALID,22.6809,VALID,97,VALID,0.164453,
2008-05-18, 00:50:05,VALID,1008.85,VALID,0,VALID,94.7805,VALID,0,VALID,22.6809,VALID,97,VALID,0.309375,
2008-05-18, 00:51:05,VALID,1008.84,VALID,0,VALID,94.8186,VALID,0,VALID,22.6809,VALID,97,VALID,0.183984,
2008-05-18, 00:52:05,VALID,1008.81,VALID,0,VALID,94.8491,VALID,0,VALID,22.6614,VALID,97,VALID,0.172266,
2008-05-18, 00:53:05,VALID,1008.81,VALID,0,VALID,94.9178,VALID,0,VALID,22.6614,VALID,97,VALID,0,
2008-05-18, 00:54:05,VALID,1008.8,VALID,0,VALID,94.8339,VALID,0,VALID,22.6225,VALID,97,VALID,0,
2008-05-18, 00:55:05,VALID,1008.77,VALID,0,VALID,94.7881,VALID,0,VALID,22.6242,VALID,97,VALID,0,
2008-05-18, 00:56:05,VALID,1008.77,VALID,0,VALID,94.811,VALID,0,VALID,22.6047,VALID,97,VALID,0,
2008-05-18, 00:57:05,VALID,1008.74,VALID,0,VALID,94.7881,VALID,0,VALID,22.5852,VALID,97,VALID,0.09375,
2008-05-18, 00:58:05,VALID,1008.72,VALID,0,VALID,94.8644,VALID,0,VALID,22.5446,VALID,97,VALID,0.3375,
2008-05-18, 00:59:05,VALID,1008.75,VALID,0,VALID,94.8568,VALID,0,VALID,22.5446,VALID,97,VALID,0.228125,
2008-05-18, 01:00:05,VALID,1008.73,VALID,0,VALID,94.9101,VALID,0,VALID,22.5251,VALID,97,VALID,0.205469,
2008-05-18, 01:01:05,VALID,1008.76,VALID,0,VALID,95.0626,VALID,0,VALID,22.5446,VALID,97,VALID,0.226953,
2008-05-18, 01:02:05,VALID,1008.74,VALID,0,VALID,95.1236,VALID,0,VALID,22.5852,VALID,97,VALID,0.121094,
2008-05-18, 01:03:05,VALID,1008.75,VALID,0,VALID,95.1465,VALID,0,VALID,22.5835,VALID,97,VALID,0.23125,
2008-05-18, 01:04:05,VALID,1008.75,VALID,0,VALID,95.1389,VALID,0,VALID,22.5852,VALID,97,VALID,0.1,
2008-05-18, 01:05:05,VALID,1008.77,VALID,0,VALID,95.1008,VALID,0,VALID,22.564,VALID,97,VALID,0.245703,
2008-05-18, 01:06:05,VALID,1008.78,VALID,0,VALID,95.0855,VALID,0,VALID,22.5251,VALID,97,VALID,0.173438,
2008-05-18, 01:07:05,VALID,1008.78,VALID,0,VALID,95.1236,VALID,0,VALID,22.5251,VALID,97,VALID,0.251172,
2008-05-18, 01:08:05,VALID,1008.77,VALID,0,VALID,95.1618,VALID,0,VALID,22.5056,VALID,47,VALID,0.276953,
2008-05-18, 01:09:05,VALID,1008.78,VALID,0,VALID,95.1084,VALID,0,VALID,22.5073,VALID,47,VALID,0.115625,
2008-05-18, 01:10:05,VALID,1008.77,VALID,0,VALID,94.9406,VALID,0,VALID,22.4277,VALID,48,VALID,0.309766,
2008-05-18, 01:11:05,VALID,1008.81,VALID,0,VALID,94.8949,VALID,0,VALID,22.3693,VALID,48,VALID,0.132031,
2008-05-18, 01:12:05,VALID,1008.82,VALID,0,VALID,94.8873,VALID,0,VALID,22.3303,VALID,47,VALID,0.1625,
2008-05-18, 01:13:05,VALID,1008.84,VALID,0,VALID,94.9406,VALID,0,VALID,22.332,VALID,47,VALID,0.00117188,
2008-05-18, 01:14:05,VALID,1008.81,VALID,0,VALID,95.0169,VALID,0,VALID,22.332,VALID,48,VALID,0.00273437,
2008-05-18, 01:15:05,VALID,1008.82,VALID,0,VALID,95.0779,VALID,0,VALID,22.2914,VALID,48,VALID,0.0199219,
2008-05-18, 01:16:05,VALID,1008.8,VALID,0,VALID,95.0626,VALID,0,VALID,22.293,VALID,47,VALID,0.292969,
2008-05-18, 01:17:05,VALID,1008.78,VALID,0,VALID,95.1084,VALID,0,VALID,22.2736,VALID,48,VALID,0.298047,
2008-05-18, 01:18:05,VALID,1008.78,VALID,0,VALID,95.0626,VALID,0,VALID,22.2329,VALID,47,VALID,0.205469,
2008-05-18, 01:19:05,VALID,1008.75,VALID,0,VALID,95.0626,VALID,0,VALID,22.2346,VALID,48,VALID,0.244922,
2008-05-18, 01:20:05,VALID,1008.74,VALID,0,VALID,95.0474,VALID,0,VALID,22.1745,VALID,48,VALID,0.173047,
2008-05-18, 01:21:05,VALID,1008.74,VALID,0,VALID,95.0855,VALID,0,VALID,22.1745,VALID,48,VALID,0,
2008-05-18, 01:22:05,VALID,1008.73,VALID,0,VALID,95.1084,VALID,0,VALID,22.1745,VALID,48,VALID,0.00429688,
2008-05-18, 01:23:05,VALID,1008.71,VALID,0,VALID,95.1465,VALID,0,VALID,22.155,VALID,48,VALID,0,
2008-05-18, 01:24:05,VALID,1008.68,VALID,0,VALID,95.1313,VALID,0,VALID,22.1567,VALID,47,VALID,0,
2008-05-18, 01:25:05,VALID,1008.66,VALID,0,VALID,95.1389,VALID,0,VALID,22.1355,VALID,47,VALID,0,
2008-05-18, 01:26:05,VALID,1008.67,VALID,0,VALID,95.1389,VALID,0,VALID,22.0966,VALID,48,VALID,0.30625,
2008-05-18, 01:27:05,VALID,1008.65,VALID,0,VALID,95.2228,VALID,0,VALID,22.1161,VALID,47,VALID,0.358594,
2008-05-18, 01:28:05,VALID,1008.64,VALID,0,VALID,95.2685,VALID,0,VALID,22.1355,VALID,47,VALID,0.331641,
2008-05-18, 01:29:05,VALID,1008.63,VALID,0,VALID,95.2457,VALID,0,VALID,22.1161,VALID,47,VALID,0.258984,
2008-05-18, 01:30:05,VALID,1008.64,VALID,0,VALID,95.2152,VALID,0,VALID,22.0966,VALID,47,VALID,0.185156,
2008-05-18, 01:31:05,VALID,1008.64,VALID,0,VALID,95.1999,VALID,0.105969,VALID,22.0771,VALID,47,VALID,0,
2008-05-18, 01:32:05,VALID,1008.62,VALID,0,VALID,95.1999,VALID,0.105969,VALID,22.0576,VALID,47,VALID,0,
2008-05-18, 01:33:05,VALID,1008.63,VALID,0,VALID,95.1999,VALID,0,VALID,22.0576,VALID,48,VALID,0.214453,
2008-05-18, 01:34:05,VALID,1008.65,VALID,0,VALID,95.1999,VALID,0,VALID,22.0187,VALID,47,VALID,0.226563,
2008-05-18, 01:35:05,VALID,1008.63,VALID,0,VALID,95.2685,VALID,0,VALID,22.0382,VALID,47,VALID,0.249609,
2008-05-18, 01:36:05,VALID,1008.6,VALID,0,VALID,95.2838,VALID,0,VALID,22.0187,VALID,48,VALID,0.358594,
2008-05-18, 01:37:05,VALID,1008.6,VALID,0,VALID,95.2609,VALID,0,VALID,22.0187,VALID,48,VALID,0.322656,
2008-05-18, 01:38:05,VALID,1008.54,VALID,0,VALID,95.2533,VALID,0,VALID,21.9797,VALID,48,VALID,0.283594,
2008-05-18, 01:39:05,VALID,1008.56,VALID,0,VALID,95.2838,VALID,0,VALID,21.9992,VALID,48,VALID,0.267188,
2008-05-18, 01:40:05,VALID,1008.55,VALID,0,VALID,95.299,VALID,0.105969,VALID,21.9992,VALID,47,VALID,0.271094,
2008-05-18, 01:41:05,VALID,1008.55,VALID,0,VALID,95.3219,VALID,0,VALID,21.9797,VALID,48,VALID,0.0335938,
2008-05-18, 01:42:05,VALID,1008.54,VALID,0,VALID,95.3219,VALID,0.105969,VALID,21.9797,VALID,47,VALID,0,
2008-05-18, 01:43:05,VALID,1008.53,VALID,0,VALID,95.2914,VALID,0,VALID,21.9391,VALID,48,VALID,0.173438,
2008-05-18, 01:44:05,VALID,1008.51,VALID,0,VALID,95.3219,VALID,0,VALID,21.9213,VALID,48,VALID,0.151562,
2008-05-18, 01:45:05,VALID,1008.48,VALID,0,VALID,95.3524,VALID,0,VALID,21.9408,VALID,48,VALID,0.190234,
2008-05-18, 01:46:05,VALID,1008.5,VALID,0,VALID,95.36,VALID,0,VALID,21.9408,VALID,48,VALID,0.254687,
2008-05-18, 01:47:05,VALID,1008.49,VALID,0,VALID,95.3524,VALID,0,VALID,21.9213,VALID,48,VALID,0.214453,
2008-05-18, 01:48:05,VALID,1008.48,VALID,0,VALID,95.3143,VALID,0,VALID,21.9018,VALID,47,VALID,0.232422,
2008-05-18, 01:49:05,VALID,1008.48,VALID,0,VALID,95.2838,VALID,0.105969,VALID,21.8807,VALID,48,VALID,0.172266,
2008-05-18, 01:50:05,VALID,1008.46,VALID,0,VALID,95.299,VALID,0,VALID,21.884,VALID,47,VALID,0.220313,
2008-05-18, 01:51:05,VALID,1008.48,VALID,0,VALID,95.2914,VALID,0,VALID,21.8434,VALID,48,VALID,0.216406,
2008-05-18, 01:52:05,VALID,1008.48,VALID,0,VALID,95.3067,VALID,0,VALID,21.8434,VALID,48,VALID,0.251563,
2008-05-18, 01:53:05,VALID,1008.46,VALID,0,VALID,95.3143,VALID,0,VALID,21.8645,VALID,48,VALID,0.1375,
2008-05-18, 01:54:05,VALID,1008.48,VALID,0,VALID,95.3372,VALID,0,VALID,21.8434,VALID,48,VALID,0.113281,
2008-05-18, 01:55:05,VALID,1008.47,VALID,0,VALID,95.36,VALID,0,VALID,21.8239,VALID,47,VALID,0.206641,
2008-05-18, 01:56:05,VALID,1008.46,VALID,0,VALID,95.3753,VALID,0,VALID,21.8045,VALID,48,VALID,0.0808594,
2008-05-18, 01:57:05,VALID,1008.43,VALID,0,VALID,95.36,VALID,0,VALID,21.8045,VALID,48,VALID,0.0574219,
2008-05-18, 01:58:05,VALID,1008.44,VALID,0,VALID,95.3677,VALID,0.105969,VALID,21.7639,VALID,48,VALID,0.100781,
2008-05-18, 01:59:05,VALID,1008.44,VALID,0,VALID,95.3829,VALID,0,VALID,21.785,VALID,48,VALID,0.266797,
2008-05-18, 02:00:05,VALID,1008.4,VALID,0,VALID,95.3677,VALID,0.105969,VALID,21.7639,VALID,48,VALID,0.0347656,
2008-05-18, 02:01:05,VALID,1008.45,VALID,0,VALID,95.3905,VALID,0.105969,VALID,21.7655,VALID,48,VALID,0.103125,
2008-05-18, 02:02:05,VALID,1008.44,VALID,0,VALID,95.4211,VALID,0,VALID,21.785,VALID,48,VALID,0,
2008-05-18, 02:03:05,VALID,1008.45,VALID,0,VALID,95.4211,VALID,0,VALID,21.7655,VALID,48,VALID,0,
2008-05-18, 02:04:05,VALID,1008.43,VALID,0,VALID,95.4211,VALID,0,VALID,21.7655,VALID,48,VALID,0,
2008-05-18, 02:05:05,VALID,1008.45,VALID,0,VALID,95.4287,VALID,0,VALID,21.746,VALID,48,VALID,0.157031,
2008-05-18, 02:06:05,VALID,1008.46,VALID,0,VALID,95.4134,VALID,0,VALID,21.7266,VALID,48,VALID,0,
2008-05-18, 02:07:05,VALID,1008.44,VALID,0,VALID,95.4134,VALID,0,VALID,21.7266,VALID,48,VALID,0,
2008-05-18, 02:08:05,VALID,1008.42,VALID,0,VALID,95.4058,VALID,0,VALID,21.7071,VALID,48,VALID,0,
2008-05-18, 02:09:05,VALID,1008.42,VALID,0,VALID,95.3905,VALID,0,VALID,21.7071,VALID,48,VALID,0.0933594,
2008-05-18, 02:10:05,VALID,1008.42,VALID,0,VALID,95.4134,VALID,0,VALID,21.6876,VALID,48,VALID,0.196094,
2008-05-18, 02:11:05,VALID,1008.43,VALID,0,VALID,95.4363,VALID,0,VALID,21.6681,VALID,48,VALID,0.259375,
2008-05-18, 02:12:05,VALID,1008.45,VALID,0,VALID,95.3982,VALID,0,VALID,21.6081,VALID,48,VALID,0.170312,
2008-05-18, 02:13:05,VALID,1008.45,VALID,0,VALID,95.3524,VALID,0,VALID,21.6097,VALID,48,VALID,0,
2008-05-18, 02:14:05,VALID,1008.45,VALID,0,VALID,95.3829,VALID,0,VALID,21.6097,VALID,48,VALID,0,
2008-05-18, 02:15:05,VALID,1008.44,VALID,0,VALID,95.3982,VALID,0,VALID,21.5902,VALID,48,VALID,0,
2008-05-18, 02:16:05,VALID,1008.4,VALID,0,VALID,95.4134,VALID,0,VALID,21.5691,VALID,48,VALID,0,
2008-05-18, 02:17:05,VALID,1008.41,VALID,0,VALID,95.4134,VALID,0,VALID,21.5708,VALID,48,VALID,0.284766,
2008-05-18, 02:18:05,VALID,1008.39,VALID,0,VALID,95.4973,VALID,0,VALID,21.5902,VALID,48,VALID,0.2875,
2008-05-18, 02:19:05,VALID,1008.39,VALID,0,VALID,95.4592,VALID,0,VALID,21.5497,VALID,48,VALID,0.182031,
2008-05-18, 02:20:05,VALID,1008.39,VALID,0,VALID,95.4897,VALID,0,VALID,21.5708,VALID,48,VALID,0.176563,
2008-05-18, 02:21:05,VALID,1008.38,VALID,0,VALID,95.5354,VALID,0,VALID,21.5708,VALID,48,VALID,0.257422,
2008-05-18, 02:22:05,VALID,1008.36,VALID,0,VALID,95.5431,VALID,0.105969,VALID,21.5902,VALID,48,VALID,0.135937,
2008-05-18, 02:23:05,VALID,1008.36,VALID,0,VALID,95.5507,VALID,0,VALID,21.5708,VALID,48,VALID,0.0222656,
2008-05-18, 02:24:05,VALID,1008.36,VALID,0,VALID,95.5431,VALID,0,VALID,21.5513,VALID,48,VALID,0.342578,
2008-05-18, 02:25:05,VALID,1008.39,VALID,0,VALID,95.5202,VALID,0,VALID,21.5513,VALID,48,VALID,0.279687,
2008-05-18, 02:26:05,VALID,1008.4,VALID,0,VALID,95.5507,VALID,0,VALID,21.5318,VALID,48,VALID,0.224219,
2008-05-18, 02:27:05,VALID,1008.39,VALID,0,VALID,95.5812,VALID,0,VALID,21.5318,VALID,48,VALID,0.0789063,
2008-05-18, 02:28:05,VALID,1008.39,VALID,0,VALID,95.5507,VALID,0,VALID,21.5124,VALID,48,VALID,0.0078125,
2008-05-18, 02:29:05,VALID,1008.38,VALID,0,VALID,95.5812,VALID,0,VALID,21.5124,VALID,48,VALID,0,
2008-05-18, 02:30:05,VALID,1008.38,VALID,0,VALID,95.5888,VALID,0,VALID,21.5124,VALID,48,VALID,0,
2008-05-18, 02:31:05,VALID,1008.38,VALID,0,VALID,95.5812,VALID,0,VALID,21.5124,VALID,48,VALID,0,
2008-05-18, 02:32:05,VALID,1008.38,VALID,0,VALID,95.5736,VALID,0,VALID,21.4734,VALID,48,VALID,0,
2008-05-18, 02:33:05,VALID,1008.38,VALID,0,VALID,95.6117,VALID,0,VALID,21.5124,VALID,48,VALID,0,
2008-05-18, 02:34:05,VALID,1008.4,VALID,0,VALID,95.6269,VALID,0,VALID,21.4929,VALID,48,VALID,0,
2008-05-18, 02:35:05,VALID,1008.36,VALID,0,VALID,95.6422,VALID,0.105969,VALID,21.4929,VALID,48,VALID,0,
2008-05-18, 02:36:05,VALID,1008.36,VALID,0,VALID,95.6422,VALID,0,VALID,21.4929,VALID,48,VALID,0,
2008-05-18, 02:37:05,VALID,1008.36,VALID,0,VALID,95.6498,VALID,0,VALID,21.5124,VALID,48,VALID,0,
2008-05-18, 02:38:05,VALID,1008.35,VALID,0,VALID,95.6574,VALID,0,VALID,21.5124,VALID,48,VALID,0,
2008-05-18, 02:39:05,VALID,1008.32,VALID,0,VALID,95.7185,VALID,0.105969,VALID,21.5124,VALID,48,VALID,0.269531,
2008-05-18, 02:40:05,VALID,1008.29,VALID,0,VALID,95.749,VALID,0,VALID,21.5318,VALID,48,VALID,0.239063,
2008-05-18, 02:41:05,VALID,1008.29,VALID,0,VALID,95.7871,VALID,0.105969,VALID,21.5513,VALID,48,VALID,0.248828,
2008-05-18, 02:42:05,VALID,1008.3,VALID,0,VALID,95.7718,VALID,0,VALID,21.5708,VALID,48,VALID,0.180078,
2008-05-18, 02:43:05,VALID,1008.32,VALID,0,VALID,95.7947,VALID,0,VALID,21.5708,VALID,30,VALID,0.381641,
2008-05-18, 02:44:05,VALID,1008.32,VALID,0,VALID,95.8176,VALID,0,VALID,21.6097,VALID,30,VALID,0.0269531,
2008-05-18, 02:45:05,VALID,1008.32,VALID,0,VALID,95.8252,VALID,0,VALID,21.6097,VALID,30,VALID,0,
2008-05-18, 02:46:05,VALID,1008.3,VALID,0,VALID,95.8252,VALID,0.105969,VALID,21.5886,VALID,30,VALID,0,
2008-05-18, 02:47:05,VALID,1008.31,VALID,0,VALID,95.81,VALID,0,VALID,21.6097,VALID,30,VALID,0.0386719,
2008-05-18, 02:48:05,VALID,1008.31,VALID,0,VALID,95.7718,VALID,0,VALID,21.5691,VALID,30,VALID,0.0691406,
2008-05-18, 02:49:05,VALID,1008.33,VALID,0,VALID,95.7871,VALID,0,VALID,21.5708,VALID,30,VALID,0.0945313,
2008-05-18, 02:50:05,VALID,1008.31,VALID,0,VALID,95.8023,VALID,0.105969,VALID,21.5513,VALID,30,VALID,0.128125,
2008-05-18, 02:51:05,VALID,1008.33,VALID,0,VALID,95.8023,VALID,0,VALID,21.5708,VALID,30,VALID,0.188281,
2008-05-18, 02:52:05,VALID,1008.33,VALID,0,VALID,95.7718,VALID,0,VALID,21.5513,VALID,30,VALID,0.196875,
2008-05-18, 02:53:05,VALID,1008.33,VALID,0,VALID,95.7642,VALID,0,VALID,21.5318,VALID,30,VALID,0.177344,
2008-05-18, 02:54:05,VALID,1008.34,VALID,0,VALID,95.7642,VALID,0,VALID,21.5124,VALID,30,VALID,0,
2008-05-18, 02:55:05,VALID,1008.32,VALID,0,VALID,95.7642,VALID,0,VALID,21.5124,VALID,30,VALID,0,
2008-05-18, 02:56:05,VALID,1008.34,VALID,0,VALID,95.7642,VALID,0,VALID,21.4929,VALID,30,VALID,0,
2008-05-18, 02:57:05,VALID,1008.32,VALID,0,VALID,95.7642,VALID,0,VALID,21.4734,VALID,30,VALID,0,
2008-05-18, 02:58:05,VALID,1008.31,VALID,0,VALID,95.8405,VALID,0,VALID,21.4913,VALID,30,VALID,0,
2008-05-18, 02:59:05,VALID,1008.31,VALID,0,VALID,95.8786,VALID,0,VALID,21.5318,VALID,30,VALID,0,
2008-05-18, 03:00:05,VALID,1008.33,VALID,0,VALID,95.9015,VALID,0.105969,VALID,21.5318,VALID,30,VALID,0,
2008-05-18, 03:01:05,VALID,1008.3,VALID,0,VALID,95.8939,VALID,0.105969,VALID,21.4913,VALID,30,VALID,0,
2008-05-18, 03:02:05,VALID,1008.33,VALID,0,VALID,95.9015,VALID,0.105969,VALID,21.5107,VALID,30,VALID,0,
2008-05-18, 03:03:05,VALID,1008.33,VALID,0,VALID,95.8862,VALID,0.105969,VALID,21.5318,VALID,30,VALID,0,
2008-05-18, 03:04:05,VALID,1008.34,VALID,0,VALID,95.9015,VALID,0,VALID,21.5318,VALID,30,VALID,0,
2008-05-18, 03:05:05,VALID,1008.31,VALID,0,VALID,95.9015,VALID,0,VALID,21.5124,VALID,30,VALID,0,
2008-05-18, 03:06:04,VALID,1008.29,VALID,0,VALID,95.9015,VALID,0,VALID,21.5124,VALID,30,VALID,0,
2008-05-18, 03:07:04,VALID,1008.28,VALID,0,VALID,95.8557,VALID,0.105969,VALID,21.5124,VALID,30,VALID,0,
2008-05-18, 03:08:04,VALID,1008.28,VALID,0,VALID,95.8862,VALID,0,VALID,21.4718,VALID,30,VALID,0,
2008-05-18, 03:09:04,VALID,1008.33,VALID,0,VALID,95.9167,VALID,0,VALID,21.4718,VALID,30,VALID,0,
2008-05-18, 03:10:04,VALID,1008.34,VALID,0,VALID,95.9701,VALID,0,VALID,21.4929,VALID,30,VALID,0,
2008-05-18, 03:11:04,VALID,1008.34,VALID,0,VALID,96.0006,VALID,0,VALID,21.5318,VALID,30,VALID,0,
2008-05-18, 03:12:04,VALID,1008.35,VALID,0,VALID,96.0082,VALID,0,VALID,21.5708,VALID,30,VALID,0,
2008-05-18, 03:13:04,VALID,1008.34,VALID,0,VALID,95.993,VALID,0.105969,VALID,21.5708,VALID,30,VALID,0,
2008-05-18, 03:14:04,VALID,1008.33,VALID,0,VALID,95.9777,VALID,0,VALID,21.5513,VALID,30,VALID,0,
2008-05-18, 03:15:04,VALID,1008.29,VALID,0,VALID,95.9777,VALID,0,VALID,21.5513,VALID,30,VALID,0,
2008-05-18, 03:16:04,VALID,1008.3,VALID,0,VALID,95.9472,VALID,0.105969,VALID,21.5318,VALID,30,VALID,0,
2008-05-18, 03:17:04,VALID,1008.29,VALID,0,VALID,95.9625,VALID,0,VALID,21.5318,VALID,30,VALID,0.187891,
2008-05-18, 03:18:04,VALID,1008.32,VALID,0,VALID,96.0159,VALID,0,VALID,21.5513,VALID,30,VALID,0.0441406,
2008-05-18, 03:19:04,VALID,1008.32,VALID,0,VALID,95.993,VALID,0,VALID,21.5513,VALID,30,VALID,0.00429688,
2008-05-18, 03:20:04,VALID,1008.36,VALID,0,VALID,96.0006,VALID,0,VALID,21.5318,VALID,30,VALID,0,
2008-05-18, 03:21:04,VALID,1008.35,VALID,0,VALID,96.0235,VALID,0.105969,VALID,21.5513,VALID,30,VALID,0,
2008-05-18, 03:22:04,VALID,1008.38,VALID,0,VALID,96.0616,VALID,0,VALID,21.5497,VALID,30,VALID,0,
2008-05-18, 03:23:04,VALID,1008.36,VALID,0,VALID,96.0997,VALID,0,VALID,21.5902,VALID,30,VALID,0.00078125,
2008-05-18, 03:24:04,VALID,1008.36,VALID,0,VALID,96.0997,VALID,0.105969,VALID,21.5902,VALID,30,VALID,0.157813,
2008-05-18, 03:25:04,VALID,1008.36,VALID,0,VALID,96.0769,VALID,0.105969,VALID,21.6097,VALID,30,VALID,0.125391,
2008-05-18, 03:26:04,VALID,1008.36,VALID,0,VALID,96.0311,VALID,0,VALID,21.5886,VALID,30,VALID,0,
2008-05-18, 03:27:04,VALID,1008.39,VALID,0,VALID,95.9777,VALID,0,VALID,21.5513,VALID,30,VALID,0,
2008-05-18, 03:28:04,VALID,1008.37,VALID,0,VALID,95.9701,VALID,0.105969,VALID,21.4913,VALID,30,VALID,0,
2008-05-18, 03:29:04,VALID,1008.39,VALID,0,VALID,95.9625,VALID,0,VALID,21.4929,VALID,30,VALID,0,
2008-05-18, 03:30:04,VALID,1008.36,VALID,0,VALID,95.9625,VALID,0,VALID,21.4718,VALID,30,VALID,0,
2008-05-18, 03:31:04,VALID,1008.36,VALID,0,VALID,95.9701,VALID,0.105969,VALID,21.4734,VALID,30,VALID,0,
2008-05-18, 03:32:04,VALID,1008.38,VALID,0,VALID,95.9854,VALID,0.105969,VALID,21.4718,VALID,30,VALID,0,
2008-05-18, 03:33:04,VALID,1008.38,VALID,0,VALID,95.9625,VALID,0.105969,VALID,21.4734,VALID,30,VALID,0,
2008-05-18, 03:34:04,VALID,1008.39,VALID,0,VALID,95.9777,VALID,0.105969,VALID,21.4539,VALID,30,VALID,0,
2008-05-18, 03:35:04,VALID,1008.37,VALID,0,VALID,95.9472,VALID,0,VALID,21.4345,VALID,30,VALID,0,
2008-05-18, 03:36:04,VALID,1008.37,VALID,0,VALID,95.9625,VALID,0.105969,VALID,21.415,VALID,30,VALID,0,
2008-05-18, 03:37:04,VALID,1008.36,VALID,0,VALID,95.932,VALID,0.105969,VALID,21.3744,VALID,30,VALID,0,
2008-05-18, 03:38:04,VALID,1008.38,VALID,0,VALID,95.9625,VALID,0.105969,VALID,21.415,VALID,30,VALID,0,
2008-05-18, 03:39:04,VALID,1008.37,VALID,0,VALID,95.9777,VALID,0.105969,VALID,21.355,VALID,30,VALID,0,
2008-05-18, 03:40:04,VALID,1008.36,VALID,0,VALID,95.9625,VALID,0.105969,VALID,21.376,VALID,30,VALID,0,
2008-05-18, 03:41:04,VALID,1008.35,VALID,0,VALID,95.8939,VALID,0.105969,VALID,21.3176,VALID,30,VALID,0.245703,
2008-05-18, 03:42:04,VALID,1008.36,VALID,0,VALID,95.8862,VALID,0,VALID,21.2576,VALID,30,VALID,0.279297,
2008-05-18, 03:43:04,VALID,1008.36,VALID,0,VALID,95.8633,VALID,0.105969,VALID,21.2397,VALID,30,VALID,0.132813,
2008-05-18, 03:44:04,VALID,1008.39,VALID,0,VALID,95.8786,VALID,0.105969,VALID,21.1992,VALID,30,VALID,0,
2008-05-18, 03:45:04,VALID,1008.4,VALID,0,VALID,95.9472,VALID,0.105969,VALID,21.2187,VALID,30,VALID,0,
2008-05-18, 03:46:04,VALID,1008.4,VALID,0,VALID,95.9854,VALID,0,VALID,21.2397,VALID,30,VALID,0,
2008-05-18, 03:47:04,VALID,1008.41,VALID,0,VALID,96.0082,VALID,0.105969,VALID,21.2381,VALID,30,VALID,0,
2008-05-18, 03:48:04,VALID,1008.41,VALID,0,VALID,96.0082,VALID,0,VALID,21.2397,VALID,30,VALID,0.219531,
2008-05-18, 03:49:04,VALID,1008.42,VALID,0,VALID,96.0692,VALID,0,VALID,21.2787,VALID,30,VALID,0.0761719,